Orbital Elements at Epoch 2459200.5 (2020-Dec-17.0) TDB
Reference: JPL 15 (heliocentric ecliptic J2000)
Element | Value | Uncertainty (1-sigma) | Units |
e | .1915795411105226 | 4.4105e-08 | |
a | 2.185386227262012 | 1.1071e-08 | au |
q | 1.766710936693899 | 1.0103e-07 | au |
i | 2.708560675497679 | 3.8709e-06 | deg |
node | 14.08298320819186 | 8.3799e-05 | deg |
peri | 338.5119631291789 | 8.4625e-05 | deg |
M | 325.1160162900374 | 1.4886e-05 | deg |
tp | 2459314.844243019521 (2021-Apr-10.34424302) | 4.9488e-05 | TDB |
period | 1180.023698820593 3.23 | 8.9668e-06 2.455e-08 | d yr |
n | .3050786186411441 | 2.3183e-09 | deg/d |
Q | 2.604061517830124 | 1.3192e-08 | au |
|
| | Orbit Determination Parameters
Additional Information
|